Regional Weather Roundup
Issued by NWS Boston, MA

Current Version | Previous Version | Text Only | Print | Product List | Glossary Off
Versions: 1 2 3 4 5 6 7 8 9 10 11 12 13 14 15 16 17 18 19 20 21 22 23 24 25 26 27
000 ASUS41 KBOX 220810 RWRBOX REGIONAL WEATHER ROUNDUP NATIONAL WEATHER SERVICE TAUNTON MA 400 AM EDT SUN OCT 22 2017 NOTE: "FAIR" INDICATES FEW OR NO CLOUDS BELOW 12,000 FEET WITH NO SIGNIFICANT WEATHER AND/OR OBSTRUCTIONS TO VISIBILITY. MAZALL-220900- EASTERN MASSACHUSETTS CITY SKY/WX TMP DP RH WIND PRES REMARKS BOSTON CLOUDY 55 49 80 CALM 30.34R BEVERLY CLOUDY 51 45 79 CALM 30.33R LAWRENCE MOCLDY 53 46 77 CALM 30.35S BEDFORD MOCLDY 47 43 86 CALM 30.33R BLUE HILL N/A 60 41 49 NW9 30.33S NORWOOD CLOUDY 45 43 93 CALM 30.34R MARSHFIELD CLOUDY 54 50 87 VRB3 30.33S PLYMOUTH PTCLDY 50 46 86 CALM 30.35R TAUNTON PTCLDY 43 41 93 CALM 30.34S NEW BEDFORD PTCLDY 46 44 93 CALM 30.34R $$ MAZALL-220900- CAPE COD AND THE ISLANDS CITY SKY/WX TMP DP RH WIND PRES REMARKS FALMOUTH FOG 52 52 100 CALM 30.35S VSB 1/4 HYANNIS CLEAR 56 55 97 CALM 30.33S FOG CHATHAM CLEAR 59 59 100 SW5 30.35S PROVINCETOWN PTCLDY 56 55 97 SW6 30.34R NANTUCKET CLEAR 58 58 100 SW7 30.35S MARTHAS VNYRD FOG 54 54 100 SW5 30.35R VSB 3/4 $$ MAZALL-220900- CENTRAL AND WESTERN MASSACHUSETTS CITY SKY/WX TMP DP RH WIND PRES REMARKS WORCESTER CLOUDY 58 39 49 W9 30.35S FITCHBURG PTCLDY 50 47 89 CALM 30.35R ORANGE CLOUDY 40 40 100 CALM 30.37R SPRINGFIELD CLOUDY 42 41 98 CALM 30.35R WESTFIELD PTCLDY 43 42 97 CALM 30.36R NORTH ADAMS PTCLDY 39 37 92 CALM 30.38S PITTSFIELD CLOUDY 42 40 92 CALM 30.36S $$ RIZALL-220900- RHODE ISLAND CITY SKY/WX TMP DP RH WIND PRES REMARKS PROVIDENCE CLOUDY 51 48 89 CALM 30.35R NEWPORT CLEAR 51 49 92 CALM 30.34R BLOCK ISLAND CLEAR 56 54 93 SW6 30.35S SMITHFIELD PTCLDY 51 46 83 CALM 30.34S WESTERLY PTCLDY 46 44 93 CALM 30.36R $$ CTZALL-220900- CONNECTICUT CITY SKY/WX TMP DP RH WIND PRES REMARKS BRADLEY INTL CLOUDY 44 43 96 NW3 30.35S HARTFORD PTCLDY 47 46 97 CALM 30.36R FOG BRIDGEPORT PTCLDY 50 46 86 CALM 30.35S DANBURY CLOUDY 43 40 89 CALM 30.37S GROTON CLEAR 48 46 93 CALM 30.35R NEW HAVEN PTCLDY 46 43 89 CALM 30.35S CHESTER FAIR 52 46 82 NW3 30.35S MERIDEN PTCLDY 43 42 97 CALM 30.36R FOG WILLIMANTIC CLOUDY 43 41 93 CALM 30.36S OXFORD CLOUDY 46 43 89 CALM 30.36S $$ MEZ002-015-021-024-NHZ003-005-008-011-012-014-VTZ005-008-220900- NORTHERN NEW ENGLAND CITY SKY/WX TMP DP RH WIND PRES REMARKS PORTLAND ME CLOUDY 48 46 93 CALM 30.34R BANGOR ME CLOUDY 49 42 77 N5 30.38R CONCORD NH PTCLDY 45 43 93 CALM 30.35S MANCHESTER NH PTCLDY 51 48 89 CALM 30.33R NASHUA NH PTCLDY 47 45 93 NW5 30.35R PORTSMOUTH NH PTCLDY 51 49 93 W3 30.32R JAFFREY NH CLOUDY 45 45 100 CALM 30.37R KEENE NH PTCLDY 40 39 97 CALM 30.38R BURLINGTON VT PTCLDY 48 45 89 CALM 30.33S MT. WASHINGTON PTCLDY 48 23 37 NW13 N/A $$ NYZ052-076-220900- EASTERN NEW YORK CITY SKY/WX TMP DP RH WIND PRES REMARKS ALBANY CLOUDY 46 42 86 CALM 30.36S NEW YORK CITY PTCLDY 61 47 59 CALM 30.35R $$ ANZALL-220900- MARINE OBSERVATIONS STATION/POSITION TIME TEMP WIND PRES VSBY WAVE AIR SEA DIR/SP/G HT/PER (UTC) (F) (DEG/KT/KT) (MB) (MI) (FT/S) BOSTON BUOY 0750 59 59 210/ 4/ 4 1026.6R 1 BUZZARDS BAY 0700 62 230/ 10/ 11 1027.7F NANTUCKET SOUND 0650 62 62 240/ 12/ 14 1027.2 1/ 3 MASS BAY-STELLWA 0704 60 59 260/ 8/ 8 1025.8R 1/11 ISLE OF SHOALS 0700 60 260/ 6/ 6 1026.4R S OF BLOCK IS NOT AVBL $$ ......................KEY......................... SKY/WX - SKY CONDITION/PRESENT WEATHER TMP - TEMPERATURE IN FAHRENHEIT DWPT - DEWPOINT IN FAHRENHEIT RH - RELATIVE HUMIDITY IN PERCENT WIND - DIRECTION AND SPEED IN MPH PRES - MEAN SEA LEVEL PRESSURE IN INCHES OF HG WCI - WIND CHILL INDEX VSB - VISIBILITY IN MILES HX - HEAT INDEX TC - TEMPERATURE IN CELSIUS VRB - VARIABLE WIND DIRECTION N/A - NOT AVAILABLE

USA.gov is the U.S. government's official web portal to all federal, state and local government web resources and services.